Location: Hlohovi?ky
(49.8934°N, 13.6739°E)
Time: 23:30:32
(UTC+00:00)

SeaSat 1 - Pass Details

Date: 19 May 2025
Orbit: 738 x 740 km, 108.0° (Epoch: 22 June)

Event Time Altitude Azimuth Distance (km) Brightness Sun altitude
Exits shadow 21:36:48 27° 190° (S) 1,387 3.4 -17.6°
Maximum altitude 21:39:03 46° 246° (WSW) 994 3.0 -17.8°
Drops below altitude 10° 21:43:46 10° 320° (NW) 2,259 6.0 -18.0°
Sets 21:46:08 0° 326° (NNW) 3,186 7.2 -18.1°
